User: anonymous   Login
Location: Wildlife_Club
(35.6000°N, 81.4330°W)
Time: 17:27:04
(UTC-04:00)
Language:

Cosmos 1782 - Orbit

View from above orbital plane
View from above orbital plane
View from above satellite
View from above satellite

Ground track
Ground track

The orbit data is extracted from the following two-line orbital elements,

1 16986U 86074A   17115.70941787 +.00001145 +00000-0 +75466-4 0  9996
2 16986 082.5090 172.2817 0011540 156.0003 204.1765 15.06528863662957
Epoch (UTC): 25 April 2017 17:01:33
Eccentricity: 0.0011540
inclination: 82.5090°
perigee height: 539 km
apogee height: 555 km
right ascension of ascending node: 172.2817°
argument of perigee: 156.0003°
revolutions per day: 15.06528863
mean anomaly at epoch: 204.1765°
orbit number at epoch: 66295

The dashed part of the orbit path shows where the satellite is in the earth's shadow,  

DLR